User: anonymous
Location: Unspecified
(0.0000°N, 0.0000°E)
Time: 05:57:56
(UTC+00:00)
Language:

STSS DEMO 1 (USA 208) - Orbit

View from above orbital plane
View from above orbital plane
View from above satellite
View from above satellite

Ground track
Ground track

The orbit data is extracted from the following two-line orbital elements,

1 35937U 09052A   14269.86601003 0.00000000  00000-0  00000-0 0    02
2 35937  57.9887 191.9300 0010464   3.9019 356.0981 12.79126320    08
Epoch (UTC): 26 September 2014 20:47:03
Eccentricity: 0.0010464
inclination: 57.9887°
perigee height: 1337 km
apogee height: 1353 km
right ascension of ascending node: 191.9300°
argument of perigee: 3.9019°
revolutions per day: 12.79126320
mean anomaly at epoch: 356.0981°
orbit number at epoch: 0

The dashed part of the orbit path shows where the satellite is in the earth's shadow,  

DLR